THOR ABLESTAR DEB, 325

Orbit data source: Space-Track

THOR ABLESTAR DEB, 325 is space debris in LEO originally from a launch on Thu, 29 Jun 1961 UTC launched from the Air Force Eastern Test Range (AFETR). Debris objects in space refer to the collection of defunct objects orbiting the Earth. Examples of debris include non-operational satellites, rocket bodies, and fragments generated from explosions, collisions, or faulty payload assembly.

Loading next visibility...
Identifier
325, 1961-015DB
Orbit
LEO
Country
Flag of USUS
Related business
Manufacturer
Unknown
Mission
Spacecraft
Bus & Motor
Unknown
Mass
Unknown
Launch date (UTC)
1961-06-29 (64 years ago)
Launch vehicle
Unknown
Launch site
Air Force Eastern Test Range (AFETR)
Object type
Payload
Rocket body
Debris
Shape & HBR
Unknown shape, 0.1 m
Radar Cross Section
Small (<0.1 m²)

Expand to show TLE details & history
Last TLE update: 10 hours ago

TLE from 10 hours ago
0 THOR ABLESTAR DEB
1 00325U 61015DB  25294.58438791  .00001556  00000-0  71778-3 0  9990
2 00325  66.9160 355.1938 0061754 216.7876 142.8975 14.22610434299210
Epoch: 2025-10-21T14:01Z
TLE epoch observation values (Epoch: 2025-10-21T14:01:31.115Z)
Latitude
-0.00006°
Longitude
114.54388°
Altitude
854.193 km
Speed
7.408 km/s
True Right ascension
23h 40m 46s
True Declination
0° 00' 00"
Sunlit
Object was in full shadow at epoch
Visualization orbit readout
Latitude
Unknown
Longitude
Unknown
Altitude
Unknown
Speed
Unknown
Apparent Right ascension
Unknown
Apparent Declination
Unknown
Sunlit
N/A
Visualization observer readout
Local Sidereal Time
18:44:22
Azimuth
Unknown
Elevation
Unknown
Doppler factor
Unknown
Orbital elements
Apogee altitude
859.313 km
Perigee altitude
770.474 km
Semi-major axis
7,193.03 km
Eccentricity
0.00618
Inclination
66.916°
RAAN
355.1938°
Arg. of periapsis
216.7876°
True anomaly
143.32177°
Mean anomaly
142.8975°
Eccentric anomaly
143.10989°
Mean motion
3.55775 °/min
Orbital period
101.19 mins
BSTAR
0.00071778

Documentation

Showing up to 5 results
|